Retour au catalogue

SJ-21

ActifScienceGEO
NORAD 49330·PAYLOAD·🇨🇳 China

Lancé Oct 24, 2021 depuis Xichang Satellite Launch Center

Loading…

TLE

FraisSource: Space-Track

Époque: Sep 14, 2026, 21:15 UTC

1 49330U 21094A   26257.88551391 -.00000354  00000-0  00000-0 0  9990
2 49330   5.3211  60.5729 0053529 171.4517 208.5142  1.00266259  6269

Suivez SJ-21 en temps réel avec AllMySat

Download on the App Store